Location: Chevoux
(46.3801°N, 4.9476°E)
Time: 07:21:11
(UTC+00:00)

X-37B - Pass Details

Date: 26 April 2021
Orbit: 386 x 389 km, 45.0° (Epoch: 08 May)

Event Time Altitude Azimuth Distance (km) Brightness Sun altitude
Exits shadow 03:31:03 15° 261° (W) 1,156 2.4 -10.5°
Maximum altitude 03:33:14 33° 202° (SSW) 677 1.4 -10.2°
Drops below altitude 10° 03:36:08 10° 136° (SE) 1,409 3.6 -9.8°
Sets 03:38:18 0° 126° (SE) 2,260 4.8 -9.5°
